Date String (YYYY-MM-DD hh:mm:ss) UTC,Instrument flags,Ambient pressure (hPa),Sample flow (lpm),Bypass flow (lpm),Sample temperature (°C),Ambient temperature (°C),ASC tube jacket temperature (°C),LED temperature (°C),Box temperature (°C),Sample RH (%),Span deviation,Mass concentration (μg/m³),Mass concentration (μg/m³),Mass concentration (μg/m³)
DateTimeUTC,F1_M11,P_M11,Q1_M11,Q2_M11,T1_M11,T2_M11,T3_M11,T4_M11,T5_M11,U1_M11,ZSPAN_M11,X0_M11,X2_M11,X1_M11
2022-07-24 09:00:00,,0829.8,5.00,0.00,30.7,29.0,00.0,39.4,32.2,33.4,0000.0,0010.71,0005.26,0004.59
2022-07-24 09:01:00,,0829.8,5.01,0.00,30.6,29.0,00.0,39.4,32.2,33.5,0000.0,0010.28,0005.27,0004.59
2022-07-24 09:02:00,,0829.8,4.99,0.00,30.6,29.0,00.0,39.4,32.2,33.4,0000.0,0010.40,0005.29,0004.59
2022-07-24 09:03:00,,0829.8,4.99,0.00,30.6,29.0,00.0,39.4,32.2,33.4,0000.0,0010.45,0005.31,0004.59
2022-07-24 09:04:00,,0829.8,4.99,0.00,30.6,29.1,00.0,39.4,32.3,33.2,0000.0,0010.46,0005.32,0004.59
2022-07-24 09:05:00,,0829.8,4.99,0.00,30.6,29.1,00.0,39.4,32.3,33.2,0000.0,0009.70,0005.31,0004.58
2022-07-24 09:06:00,,0829.7,5.00,0.00,30.6,29.1,00.0,39.4,32.3,33.1,0000.0,0009.64,0005.32,0004.57
2022-07-24 09:07:00,,0829.7,5.01,0.00,30.6,29.1,00.0,39.4,32.3,33.2,0000.0,0009.70,0005.36,0004.57
2022-07-24 09:08:00,,0829.6,5.01,0.00,30.6,29.1,00.0,39.4,32.3,33.1,0000.0,0009.24,0005.36,0004.56
2022-07-24 09:09:00,,0829.6,5.00,0.00,30.6,29.1,00.0,39.4,32.3,33.0,0000.0,0009.12,0005.36,0004.56
2022-07-24 09:10:00,,0829.6,5.00,0.00,30.6,29.1,00.0,39.4,32.3,33.1,0000.0,0009.22,0005.37,0004.55
2022-07-24 09:11:00,,0829.7,5.00,0.00,30.6,29.2,00.0,39.4,32.3,33.0,0000.0,0009.22,0005.37,0004.54
2022-07-24 09:12:00,,0829.7,4.99,0.00,30.6,29.2,00.0,39.4,32.3,32.9,0000.0,0009.06,0005.38,0004.54
2022-07-24 09:13:00,,0829.7,5.00,0.00,30.6,29.2,00.0,39.4,32.3,32.9,0000.0,0009.26,0005.35,0004.53
2022-07-24 09:14:00,,0829.7,5.02,0.00,30.6,29.2,00.0,39.4,32.3,32.9,0000.0,0009.71,0005.34,0004.53
2022-07-24 09:15:00,,0829.7,5.00,0.00,30.6,28.7,00.0,39.3,32.3,32.9,0000.0,0009.69,0005.33,0004.52
2022-07-24 09:16:00,,0829.6,5.00,0.00,30.6,28.0,00.0,39.3,32.2,33.0,0000.0,0009.69,0005.33,0004.52
2022-07-24 09:17:00,,0829.6,4.99,0.00,30.5,27.6,00.0,39.2,32.1,33.4,0000.0,0009.63,0005.29,0004.52
2022-07-24 09:18:00,,0829.6,5.00,0.00,30.4,27.6,00.0,39.2,31.9,33.3,0000.0,0009.70,0005.24,0004.49
2022-07-24 09:19:00,,0829.7,5.01,0.00,30.3,27.7,00.0,39.2,31.9,33.3,0000.0,0009.64,0005.22,0004.49
2022-07-24 09:20:00,,0829.7,4.99,0.00,30.3,27.8,00.0,39.2,31.9,33.4,0000.0,0009.49,0005.15,0004.47
2022-07-24 09:21:00,,0829.7,5.01,0.00,30.2,27.9,00.0,39.1,31.8,33.7,0000.0,0009.72,0005.15,0004.46
2022-07-24 09:22:00,,0829.8,5.00,0.00,30.2,28.0,00.0,39.1,31.9,33.6,0000.0,0009.77,0005.14,0004.45
2022-07-24 09:23:00,,0829.8,5.00,0.00,30.2,28.2,00.0,39.1,31.9,33.7,0000.0,0009.72,0005.09,0004.44
2022-07-24 09:24:00,,0829.8,5.00,0.00,30.2,28.3,00.0,39.1,31.9,33.9,0000.0,0009.66,0005.08,0004.42
2022-07-24 09:25:00,,0829.7,4.99,0.00,30.2,28.4,00.0,39.1,31.9,33.9,0000.0,0008.90,0005.07,0004.41
2022-07-24 09:26:00,,0829.7,4.99,0.00,30.2,28.4,00.0,39.0,31.9,33.9,0000.0,0008.95,0005.06,0004.41
2022-07-24 09:27:00,,0829.6,5.00,0.00,30.2,28.5,00.0,39.0,31.9,34.0,0000.0,0008.99,0005.07,0004.42
2022-07-24 09:28:00,,0829.6,5.00,0.00,30.2,28.6,00.0,39.0,31.9,33.6,0000.0,0009.20,0005.09,0004.42
2022-07-24 09:29:00,,0829.7,5.00,0.00,30.2,28.6,00.0,39.0,32.0,33.6,0000.0,0009.41,0005.13,0004.44
2022-07-24 09:30:00,,0829.8,5.01,0.00,30.2,28.7,00.0,39.0,32.0,33.7,0000.0,0009.43,0005.15,0004.45
2022-07-24 09:31:00,,0829.8,5.01,0.00,30.2,28.7,00.0,39.0,32.0,33.7,0000.0,0009.62,0005.25,0004.46
2022-07-24 09:32:00,,0829.6,5.00,0.00,30.2,28.8,00.0,39.0,32.0,33.8,0000.0,0009.36,0005.23,0004.46
2022-07-24 09:33:00,,0829.6,5.00,0.00,30.2,28.8,00.0,39.0,32.0,33.8,0000.0,0009.29,0005.23,0004.47
2022-07-24 09:34:00,,0829.6,5.00,0.00,30.2,28.8,00.0,39.0,32.0,33.6,0000.0,0009.31,0005.24,0004.49
2022-07-24 09:35:00,,0829.5,5.00,0.00,30.2,28.9,00.0,39.0,32.0,33.4,0000.0,0009.32,0005.25,0004.50
2022-07-24 09:36:00,,0829.6,4.98,0.00,30.2,28.9,00.0,39.0,32.0,33.3,0000.0,0009.27,0005.25,0004.51
2022-07-24 09:37:00,,0829.5,5.00,0.00,30.2,28.9,00.0,39.0,32.1,33.8,0000.0,0009.23,0005.25,0004.51
2022-07-24 09:38:00,,0829.5,5.01,0.00,30.3,28.9,00.0,39.0,32.1,33.5,0000.0,0009.19,0005.24,0004.51
2022-07-24 09:39:00,,0829.6,5.00,0.00,30.3,29.0,00.0,39.0,32.1,33.4,0000.0,0009.22,0005.27,0004.52
2022-07-24 09:40:00,,0829.5,5.00,0.00,30.3,29.0,00.0,39.0,32.1,33.3,0000.0,0008.90,0005.27,0004.53
2022-07-24 09:41:00,,0829.5,5.00,0.00,30.3,29.0,00.0,39.1,32.1,33.3,0000.0,0008.91,0005.29,0004.55
2022-07-24 09:42:00,,0829.5,5.00,0.00,30.3,29.0,00.0,39.1,32.1,33.3,0000.0,0008.94,0005.28,0004.55
2022-07-24 09:43:00,,0829.6,4.99,0.00,30.3,29.0,00.0,39.1,32.1,33.5,0000.0,0009.04,0005.33,0004.57
2022-07-24 09:44:00,,0829.5,4.99,0.00,30.3,29.1,00.0,39.1,32.1,33.6,0000.0,0009.08,0005.36,0004.59
2022-07-24 09:45:00,,0829.5,5.01,0.00,30.3,29.1,00.0,39.1,32.2,33.2,0000.0,0008.97,0005.35,0004.60
2022-07-24 09:46:00,,0829.5,5.00,0.00,30.3,29.1,00.0,39.1,32.2,33.4,0000.0,0009.02,0005.37,0004.63
2022-07-24 09:47:00,,0829.6,5.00,0.00,30.4,29.1,00.0,39.1,32.2,33.2,0000.0,0008.99,0005.36,0004.64
2022-07-24 09:48:00,,0829.6,5.00,0.00,30.4,29.1,00.0,39.1,32.2,33.5,0000.0,0009.05,0005.41,0004.66
2022-07-24 09:49:00,,0829.6,5.00,0.00,30.4,28.8,00.0,39.1,32.2,33.7,0000.0,0009.19,0005.47,0004.69
2022-07-24 09:50:00,,0829.6,5.01,0.00,30.3,28.0,00.0,39.0,32.1,33.3,0000.0,0009.17,0005.50,0004.71
2022-07-24 09:51:00,,0829.5,5.00,0.00,30.3,27.7,00.0,39.0,32.0,33.4,0000.0,0009.22,0005.50,0004.73
2022-07-24 09:52:00,,0829.5,4.99,0.00,30.2,27.6,00.0,39.0,31.8,33.9,0000.0,0009.30,0005.51,0004.73
2022-07-24 09:53:00,,0829.5,5.01,0.00,30.1,27.6,00.0,39.0,31.7,33.8,0000.0,0009.36,0005.49,0004.74
2022-07-24 09:54:00,,0829.5,4.99,0.00,30.1,27.8,00.0,38.9,31.8,33.8,0000.0,0009.30,0005.47,0004.76
2022-07-24 09:55:00,,0829.5,5.01,0.00,30.0,27.9,00.0,38.9,31.8,33.7,0000.0,0009.32,0005.49,0004.77
2022-07-24 09:56:00,,0829.5,5.00,0.00,30.0,28.0,00.0,38.9,31.8,33.8,0000.0,0009.47,0005.54,0004.77
2022-07-24 09:57:00,,0829.5,4.99,0.00,30.0,28.1,00.0,38.9,31.7,33.5,0000.0,0009.60,0005.55,0004.77
2022-07-24 09:58:00,,0829.5,4.99,0.00,30.0,28.2,00.0,38.9,31.7,33.5,0000.0,0009.79,0005.57,0004.77
2022-07-24 09:59:00,,0829.5,5.00,0.00,30.0,28.3,00.0,38.9,31.8,33.6,0000.0,0009.79,0005.52,0004.77
